Find Starlink 6210

NORAD ID: 56485 Int'l Des: 2023-064 Owner: SPXS Country: US Constellation: starlink operational
LEOCIRCULAR

当前视图

正在加载3D地球...

关于 Starlink 6210

正在加载描述...

即将过境

Passes for default location (London). Set your location on the main map for personalized predictions.

高度历史

Loading altitude history...

两行轨道根数

1 56485U 23064AP 26150.80379164 -.00000196 00000-0 -85992-5 0 9991
2 56485 69.9995 277.2329 0002643 269.3916 90.6940 14.98329264168045
Epoch: May 30, 2026 • Age: 16 hours

当前状态

高度 576.6 km
速度 7.58 km/s
星下点 31.48°N, 132.58°W
发射日期 May 10, 2023
运行时间 3 years
类型 internet

技术详情

分类 Payload
质量 305.00 kg
干质量 290.00 kg
总质量 305.00 kg
长度 0.20 m
直径 2.80 m
跨度 9.00 m
形状 Box + pan
制造商 SPXS
平台类型 Starlink
阶段状态 In Orbit
所有者/国家 SPXS/US

Most Searched